SHIJIAN-21 (SJ-21)

Last updated on Sat Feb 08 2025 00:02:44 GMT+0000 (Coordinated Universal Time)

1 49330U 21094A 25038.46438023 -.00000243 00000+0 00000+0 0 9991 2 49330 10.2538 43.5053 0076561 37.5153 11.5471 1.00254549 12292
UTC large
Height (km)
Speed (km/s)
/
Latitude / Longitude
Inclination (degrees)
Orbital Period (minutes)
Azimuth
Elevation
Range (km)
Doppler Factor

Next 0 passes for location: London (51.5072 / 0.1276)

Sorry there are no passes over London.